Location: Oklahoma City
(35.4680°N, 97.5160°W)
Time: 00:07:30
(UTC-06:00)

Tiangong - Visible Passes

Search period start: 23 February 2024 00:00
Search period end: 04 March 2024 00:00
Orbit: 375 x 387 km, 41.5° (Epoch: 22 February)

Date Brightness Start Highest point End Pass type
(mag) Time Alt. Az. Time Alt. Az. Time Alt. Az.
25 Feb -0.4 19:45:02 10° SSW 19:46:46 21° S 19:46:46 21° S visible
26 Feb 0.1 18:45:24 10° S 18:46:51 13° SE 18:48:17 10° ESE visible
26 Feb 0.2 20:20:07 10° WSW 20:21:21 22° WSW 20:21:21 22° WSW visible
27 Feb -1.7 19:19:16 10° SW 19:22:14 44° SSE 19:23:36 26° E visible
28 Feb -1.8 19:54:46 10° W 19:57:49 56° NNW 19:57:51 56° NNW visible
29 Feb -2.2 18:53:32 10° WSW 18:56:38 82° SSE 18:59:45 10° ENE visible
29 Feb 0.6 20:30:47 10° WNW 20:31:57 18° WNW 20:31:57 18° WNW visible
01 Mar -1.1 19:29:16 10° W 19:32:12 38° NNW 19:33:47 22° NE visible
02 Mar -0.4 20:05:13 10° WNW 20:07:38 25° NNW 20:07:38 25° NNW visible
03 Mar -0.7 19:03:34 10° WNW 19:06:22 30° N 19:09:11 10° NE visible
03 Mar 1.0 20:40:51 10° NW 20:41:22 13° NW 20:41:22 13° NW visible
